This demonstration page uses our WeatherBlox Daily Observations layout. Learn more.

Hourly Observations for July 10, 2020

Temp ( °F °C ) Dew Point ( °F °C ) Humidity (%) Winds ( mph kmh ) Pressure ( in mb ) Visibility ( mi km ) Precip ( " mm )
12:15 am 00:15 Clear 72 22.2 69 20.5 90 90 SE 5 7 29.96 1015 10 16.0934 0 0
12:35 am 00:35 Clear 72 22 68 20.2 90 90 SE 5 7 29.96 1015 10 16.0934 0 0
12:55 am 00:55 Clear 71 21.7 68 20.2 91 91 Calm 29.97 1015 10 16.0934 0 0
1:15 am 01:15 Clear 71 21.6 68 20.1 91 91 Calm 29.99 1016 10 16.0934 0 0
1:35 am 01:35 Clear 71 21.6 68 20.2 92 92 E 13 20 29.96 1015 10 16.0934 0 0
1:55 am 01:55 Clear 71 21.7 67 19.6 88 88 E 3 6 29.98 1015 10 16.0934 0 0
2:15 am 02:15 Partly Cloudy with Nearby Thunderstorms 71 21.6 67 19.2 86 86 NNW 15 24 30.07 1018 10 16.0934 0 0
2:35 am 02:35 Mostly Cloudy with Light Thunderstorms 69 20.4 62 16.8 80 80 ENE 16 26 30.04 1017 10 16.0934 0 0
2:55 am 02:55 Partly Cloudy with Light Thunderstorms 67 19.2 62 16.4 84 84 SW 3 6 30.02 1017 10 16.0934 0 0
3:15 am 03:15 Partly Cloudy 67 19.2 62 16.4 84 84 S 7 11 30.01 1016 10 16.0934 0 0
3:35 am 03:35 Clear 65 18.4 62 16.6 89 89 WSW 7 11 30 1016 10 16.0934 0 0
3:55 am 03:55 Clear 66 19.1 62 16.8 87 87 SW 8 13 29.98 1015 10 16.0934 0 0
4:15 am 04:15 Clear 68 19.9 64 18 89 89 SSW 10 17 29.94 1014 10 16.0934 0 0
4:35 am 04:35 Clear 69 20.8 64 18 84 84 SSW 14 22 29.9 1013 10 16.0934 0 0
4:55 am 04:55 Clear 70 21 64 18 83 83 S 15 24 29.91 1013 10 16.0934 0 0
5:15 am 05:15 Clear 69 20.3 65 18.1 87 87 SSW 6 9 29.9 1013 10 16.0934 0 0
5:35 am 05:35 Clear 69 20.3 65 18.1 87 87 WSW 5 7 29.91 1013 10 16.0934 0 0
5:55 am 05:55 Clear 69 20.3 65 18.4 89 89 SW 6 9 29.91 1013 10 16.0934 0 0
6:15 am 06:15 Clear 67 19.7 64 17.8 89 89 E 5 7 29.92 1013 10 16.0934 0 0
6:35 am 06:35 Sunny 66 18.8 64 17.5 92 92 ENE 8 13 29.95 1014 10 16.0934 0 0
6:55 am 06:55 Sunny 65 18.1 64 17.5 96 96 E 3 6 29.98 1015 10 16.0934 0 0
7:15 am 07:15 Sunny 66 19.1 65 18.3 95 95 E 3 6 29.98 1015 10 16.0934 0 0
7:35 am 07:35 Sunny 68 20 65 18.6 92 92 Calm 29.99 1015 10 16.0934 0 0
7:55 am 07:55 Sunny 70 21.2 66 18.8 86 86 SSE 5 7 29.97 1015 10 16.0934 0 0
8:15 am 08:15 Sunny 71 21.6 66 19.1 86 86 E 3 6 29.98 1015 10 16.0934 0 0
8:35 am 08:35 Sunny 72 22.1 67 19.2 84 84 ENE 6 9 29.98 1015 10 16.0934 0 0
8:55 am 08:55 Sunny 73 22.7 67 19.2 81 81 E 5 7 29.97 1015 10 16.0934 0 0
9:15 am 09:15 Sunny 74 23.3 67 19.4 79 79 E 7 11 29.97 1015 10 16.0934 0 0
9:35 am 09:35 Sunny 75 23.9 67 19.4 76 76 E 5 7 29.98 1015 10 16.0934 0 0
9:55 am 09:55 Sunny 76 24.3 66 19.1 73 73 ESE 6 9 29.97 1015 10 16.0934 0 0
10:15 am 10:15 Sunny 77 24.8 68 19.8 74 74 ESE 5 7 29.97 1015 10 16.0934 0 0
10:35 am 10:35 Sunny 77 25.2 68 19.9 73 73 SE 5 7 29.96 1015 10 16.0934 0 0
10:55 am 10:55 Sunny 78 25.6 68 19.9 71 71 SE 5 7 29.96 1015 10 16.0934 0 0
11:15 am 11:15 Sunny 80 26.5 68 20.1 68 68 SSE 6 9 29.95 1014 10 16.0934 0 0
11:35 am 11:35 Sunny 81 27 67 19.6 64 64 S 7 11 29.95 1014 10 16.0934 0 0
11:55 am 11:55 Sunny 81 27.3 68 19.9 64 64 S 10 17 29.94 1014 10 16.0934 0 0
12:15 pm 12:15 Sunny 82 27.7 69 20.3 64 64 S 9 15 29.94 1014 10 16.0934 0 0
12:35 pm 12:35 Sunny 83 28.2 69 20.3 62 62 SSW 12 19 29.93 1014 10 16.0934 0 0
12:55 pm 12:55 Sunny 84 28.9 68 20.2 59 59 S 10 17 29.92 1013 10 16.0934 0 0
1:15 pm 13:15 Sunny 85 29.4 69 20.3 58 58 S 10 17 29.92 1013 10 16.0934 0 0
1:35 pm 13:35 Sunny 85 29.5 68 19.8 56 56 S 8 13 29.92 1013 10 16.0934 0 0
1:55 pm 13:55 Sunny 85 29.6 67 19.7 55 55 S 12 19 29.91 1013 10 16.0934 0 0
2:15 pm 14:15 Sunny 86 30.1 68 19.8 54 54 SSW 9 15 29.91 1013 10 16.0934 0 0
2:35 pm 14:35 Sunny 87 30.5 68 20.1 54 54 S 7 11 29.9 1013 10 16.0934 0 0
2:55 pm 14:55 Sunny 87 30.4 68 19.8 53 53 S 9 15 29.87 1012 10 16.0934 0 0
3:15 pm 15:15 Partly Cloudy 88 31 68 20 52 52 S 13 20 29.87 1011 10 16.0934 0 0
3:35 pm 15:35 Partly Cloudy 89 31.5 68 20 50 50 S 12 19 29.87 1011 10 16.0934 0 0
3:55 pm 15:55 Mostly Cloudy 89 31.5 68 20.1 51 51 S 14 22 29.85 1011 10 16.0934 0 0
4:10 pm 16:10 Partly Cloudy 88 31.1 68 20.1 52 52 S 9 15 29.85 1011 10 16.0934 0 0
4:35 pm 16:35 Mostly Cloudy 89 31.6 70 21 53 53 S 8 13 29.85 1011 10 16.0934 0 0
4:55 pm 16:55 Partly Cloudy 90 32 70 21 52 52 SSE 7 11 29.86 1011 10 16.0934 0 0
5:15 pm 17:15 Partly Cloudy 90 32.2 69 20.7 51 51 S 7 11 29.85 1011 10 16.0934 0 0
5:35 pm 17:35 Mostly Cloudy 88 31 70 21.1 56 56 SSE 7 11 29.85 1011 10 16.0934 0 0
5:55 pm 17:55 Mostly Cloudy with Nearby Thunderstorms 88 31 71 21.8 58 58 SE 5 7 29.87 1011 10 16.0934 0 0
6:15 pm 18:15 Partly Cloudy with Nearby Thunderstorms 89 31.4 71 21.4 55 55 SSE 3 6 29.87 1011 10 16.0934 0 0
6:35 pm 18:35 Mostly Cloudy with Nearby Thunderstorms 73 22.6 62 16.7 69 69 N 15 24 29.97 1015 10 16.0934 0 0
6:55 pm 18:55 Cloudy with Nearby Thunderstorms 73 22.5 62 16.5 69 69 NE 20 31 29.98 1015 10 16.0934 0 0
7:15 pm 19:15 Partly Cloudy 73 23 62 16.9 69 69 E 14 22 29.96 1015 10 16.0934 0 0
7:35 pm 19:35 Sunny with Light Rain 75 23.9 64 17.6 68 68 ESE 12 19 29.95 1014 10 16.0934 0 0
7:55 pm 19:55 Sunny 76 24.5 69 20.3 78 78 SE 16 26 29.89 1012 10 16.0934 0 0
8:15 pm 20:15 Sunny 75 23.9 69 20.3 80 80 ESE 16 26 29.89 1012 10 16.0934 0 0
8:35 pm 20:35 Sunny 74 23.5 64 17.7 70 70 SE 13 20 29.88 1012 10 16.0934 0 0
8:55 pm 20:55 Sunny 73 22.7 63 17 70 70 SSE 12 19 29.88 1012 10 16.0934 0 0
9:15 pm 21:15 Clear 72 22.2 65 18.1 78 78 SSE 9 15 29.87 1011 10 16.0934 0 0
9:35 pm 21:35 Clear 72 22 66 19 83 83 S 7 11 29.84 1011 10 16.0934 0 0
9:55 pm 21:55 Clear 71 21.6 66 19 85 85 S 9 15 29.83 1010 10 16.0934 0 0
10:15 pm 22:15 Clear 72 22 67 19.2 84 84 S 8 13 29.84 1011 10 16.0934 0 0
10:35 pm 22:35 Clear 72 22.2 67 19.3 84 84 S 7 11 29.84 1010 10 16.0934 0 0
10:55 pm 22:55 Clear 72 22.3 67 19.5 84 84 S 10 17 29.85 1011 10 16.0934 0 0
11:15 pm 23:15 Clear 72 22.2 67 19.7 86 86 S 12 19 29.84 1010 10 16.0934 0 0
11:35 pm 23:35 Clear 73 22.5 67 19.7 84 84 SSW 10 17 29.86 1011 10 16.0934 0 0
11:55 pm 23:55 Clear 73 22.8 67 19.6 82 82 SSW 12 19 29.84 1011 10 16.0934 0 0

Powered by AerisWeather